Regional Weather Roundup
Issued by NWS Albany, NY

Home | Current Version | Previous Version | Text Only | Print | Product List | Glossary On
Versions: 1 2 3 4 5 6 7 8 9 10 11 12 13 14 15 16 17 18 19 20 21 22 23 24 25 26 27 28 29 30 31 32 33 34 35 36 37 38 39 40 41 42 43 44 45 46 47 48 49 50
000
ASUS41 KALY 091110
RWRALY

NEW YORK STATE HOURLY WEATHER ROUNDUP
NATIONAL WEATHER SERVICE ALBANY NY
600 AM EST TUE FEB 09 2016

NOTE: "FAIR" INDICATES FEW OR NO CLOUDS BELOW 12,000 FEET WITH NO
SIGNIFICANT WEATHER AND/OR NO OBSTRUCTIONS TO VISIBILITY.

NYZ032-033-038>043-046>054-057>066-NYZ062>081-091200-
EAST


CITY           SKY/WX    TMP DP  RH WIND       PRES   REMARKS
ALBANY         LGT SNOW  24  20  84 S5        29.69F FOG     WCI  18
GLENS FALLS    LGT SNOW  22  18  85 NE3       29.69F FOG
POUGHKEEPSIE   PTCLDY    22  18  85 CALM      29.66F
NEWBURGH       MOCLDY    21  19  93 E7        29.65F WCI  13
MONTGOMERY     MOCLDY    19  18  95 N5        29.64F WCI  12
WHITE PLAINS   MOCLDY    23  17  78 NE5       29.64S WCI  17
ISLIP          CLOUDY    26  20  77 NE8       29.65R WCI  18
NEW YORK CITY  CLOUDY    27  22  81 NE10      29.66S WCI  17
CENTRAL PARK   CLOUDY    27  21  78 NE6       29.67S WCI  20
$$

NYZ005>009-017-018-044>046-055-056-091200-
CENTRAL


CITY           SKY/WX    TMP DP  RH WIND       PRES   REMARKS
FULTON         CLOUDY    28  23  81 SE9       29.56F WCI  19
SYRACUSE       LGT SNOW  24  23  96 E12       29.57F FOG     WCI  13
ROME           LGT SNOW  24  20  84 SE14      29.63F FOG     WCI  12
ELMIRA         CLOUDY    32  27  81 CALM      29.53F
BINGHAMTON     CLOUDY    24  22  91 SE10      29.52F WCI  14
MONTICELLO     CLOUDY    19  18  93 E6        29.58F WCI  11
$$

NYZ026>034-041>043-091200-
NORTH


CITY           SKY/WX    TMP DP  RH WIND       PRES   REMARKS
WATERTOWN      LGT SNOW  26  23  88 NE9       29.59F VSB 1   WCI  17
FORT DRUM      NOT AVBL
MASSENA        FLURRIES  18  12  77 NE14      29.71S WCI   4
SARANAC LAKE   CLOUDY    14  11  87 NE6       29.55F WCI   5
PLATTSBURGH    LGT SNOW  19  15  84 NW7       29.70F FOG     WCI  10
$$

NYZ001>004-010>016-019>021-091200-
WEST


CITY           SKY/WX    TMP DP  RH WIND       PRES   REMARKS
NIAGARA FALLS  CLOUDY    35  31  85 SW9       29.49S WCI  28
BUFFALO        FLURRIES  35  32  88 SW7       29.49F WCI  29
DUNKIRK        CLOUDY    34  31  88 SW8       29.51S WCI  27
JAMESTOWN      CLOUDY    30  27  86 SW3       29.46S
WELLSVILLE     CLOUDY    31  27  85 SW5       29.47S WCI  26
ROCHESTER      CLOUDY    33  31  92 CALM      29.51S
PENN YAN       CLOUDY    32  27  81 SE8       29.52S WCI  25
$$

             KEY
       WCI = WIND CHILL INDEX
       VSB = VISIBILITY
       HX  = HEAT INDEX
$$



USA.gov is the U.S. government's official web portal to all federal, state and local government web resources and services.